STARLINK-32705

Last updated on Fri Jan 31 2025 00:02:04 GMT+0000 (Coordinated Universal Time)

1 62479U 24254T 25030.58334491 -.00705289 00000+0 -17961-1 0 9999 2 62479 43.0004 137.0132 0001494 270.6428 160.1208 15.41163652 5877
UTC large
Height (km)
Speed (km/s)
/
Latitude / Longitude
Inclination (degrees)
Orbital Period (minutes)
Azimuth
Elevation
Range (km)
Doppler Factor

Next 0 passes for location: London (51.5072 / 0.1276)

Sorry there are no passes over London.